Temp
3 3 2 2 2 3 1 -2 1 2 4 3 3 3 4 5 4 4 3 4 5 6 7 8 8 9 10 10 11 11 12 13 16 15 15 15 16 15 14 14 14 14 14 14
2 1 4 4 4 4 3 1 1 3 4 4 3 2 3 4 3 3 2 2 2 2 3 4 3 5 9 10 10 11 11 13 15 16 16 16 16 15 15 14 14 14 13 13
-0 3 4 4 3 3 2 1 1 2 3 3 1 0 1 2 3 2 2 2 2 1 1 2 3 3 5 8 10 11 11 13 12 15 16 16 16 15 14 14 14 14 13 13
1 3 3 3 4 3 2 3 3 2 0 -5 1 -3 1 1 1 1 1 1 1 1 1 2 3 3 3 6 9 10 11 12 12 14 16 16 16 15 15 14 14 13 13 13
0 1 2 3 3 3 2 2 2 2 -2 -5 -1 -4 -2 -0 -1 -1 1 1 0 0 1 1 2 3 3 5 7 10 11 12 11 13 15 16 15 15 15 14 13 13 13 13
0 2 2 4 3 3 2 1 2 -0 -3 -5 -4 -3 -4 -2 -1 -1 0 0 0 -0 0 1 1 2 2 5 8 10 10 11 11 12 14 15 15 15 14 14 13 13 13 12
-0 1 2 3 1 2 -0 -1 -4 -5 -5 -3 1 -0 -3 -1 0 0 -0 -0 -1 -1 -1 -0 0 2 2 3 6 9 10 11 11 13 13 14 15 14 14 14 14 13 13 12
-4 -1 1 2 -2 -3 -1 -3 -2 -2 -1 -0 1 -2 -1 -0 1 0 -0 -1 -1 -1 -1 -1 0 1 2 4 5 7 10 11 11 13 13 13 14 14 14 14 14 13 13 12
-4 -1 2 2 2 -2 -1 -1 0 -3 -2 -3 -0 -1 -3 0 -1 -1 -2 -2 -2 -2 -1 -0 -0 1 2 4 6 8 11 11 11 13 14 14 14 14 13 13 13 13 13 12
-3 -2 1 2 1 1 -0 -1 -3 -7 -3 -3 1 -3 -3 -2 -3 -2 -3 -3 -3 -2 -1 -0 1 3 4 4 7 9 11 11 12 14 15 13 13 14 13 12 12 13 12 12
-9 -6 -1 0 -3 -5 -1 -6 -4 -3 -2 -1 -2 -1 -3 -1 -3 -4 -4 -3 -3 -3 -2 -1 1 3 3 4 8 11 11 12 13 14 14 13 13 13 12 12 12 12 12 12
-4 -4 -5 -2 -4 -2 -2 -4 -4 -3 -2 -2 -2 -2 -1 -1 -3 -4 -4 -4 -3 -3 -2 -1 1 3 3 6 10 11 12 13 13 15 13 13 13 12 12 12 12 11 11 11
-3 -7 -5 -5 -4 -2 -3 -3 -3 -3 -2 -2 -4 -2 0 -2 -4 -4 -4 -4 -3 -3 -2 -1 1 2 3 8 10 12 13 13 14 13 13 13 13 12 12 11 11 11 11 11
-1 -7 -5 -4 -3 -1 -2 -2 -3 -3 -3 -3 -3 -4 -3 -4 -5 -4 -4 -3 -3 -3 -3 -1 -0 1 4 5 8 12 13 13 15 13 13 12 12 12 11 11 11 11 11 10
-4 -5 -3 -1 -1 -2 -2 -4 -3 -4 -4 -4 -4 -5 -4 -5 -5 -5 -4 -4 -4 -3 -3 -2 -1 0 2 4 7 13 13 13 13 12 12 12 12 12 11 11 11 11 11 10
-3 -3 -1 -4 -1 -4 -3 -3 -4 -3 -4 -5 -5 -4 -4 -5 -4 -4 -4 -4 -4 -4 -3 -2 -1 -0 1 3 4 13 13 12 12 12 12 12 11 11 11 11 10 10 10 10
-4 -3 -5 -4 -1 -2 -4 -7 -6 -4 -4 -5 -5 -5 -5 -5 -5 -4 -4 -4 -4 -4 -4 -3 -2 -1 0 1 3 10 12 12 12 11 11 11 11 10 10 10 10 10 9 9
-2 -4 -4 -4 -2 -5 -5 -5 -5 -4 -5 -5 -5 -5 -6 -5 -5 -3 -4 -5 -4 -4 -4 -3 -3 -2 -0 0 3 6 12 12 11 11 11 11 10 10 10 10 10 9 9 9
-3 -3 -5 -6 -4 -3 -4 -5 -5 -8 -6 -4 -6 -6 -5 -5 -3 -2 -4 -5 -5 -4 -4 -4 -3 -2 -0 1 4 11 11 11 11 11 10 10 9 9 9 9 9 9 9 9
-1 -4 -6 -4 -5 -4 -8 -4 -4 -5 -5 -4 -6 -6 -6 -5 -5 -4 -5 -5 -5 -4 -4 -4 -3 -2 -0 0 8 11 11 11 11 10 10 9 9 9 8 8 8 8 8 8
-6 -8 -6 -5 -6 -5 -5 -5 -4 -6 -7 -7 -7 -6 -6 -5 -5 -5 -5 -5 -5 -5 -5 -4 -3 -2 -1 -0 7 8 10 10 10 10 9 9 8 8 8 8 8 8 8 7
-9 -9 -7 -6 -9 -5 -6 -4 -6 -8 -7 -7 -7 -6 -6 -5 -5 -5 -5 -5 -5 -5 -5 -5 -4 -3 -2 -1 2 4 5 9 9 9 8 9 9 8 8 8 7 7 7 6
-7 -8 -8 -6 -4 -5 -5 -5 -5 -7 -8 -8 -7 -6 -6 -5 -5 -5 -5 -5 -5 -5 -5 -5 -4 -3 -2 -1 -0 1 4 8 9 9 8 8 8 7 8 7 6 6 5 6
-8 -10 -9 -6 -4 -6 -6 -5 -7 -7 -8 -7 -7 -7 -5 -6 -6 -6 -6 -6 -6 -5 -5 -5 -5 -3 -3 -2 -1 -0 4 7 9 7 7 7 7 7 6 6 6 5 5 4
-8 -7 -7 -7 -7 -6 -6 -6 -8 -8 -7 -7 -7 -6 -6 -6 -6 -6 -6 -6 -6 -6 -6 -6 -5 -4 -4 -3 -1 -0 3 5 6 6 5 5 6 6 5 5 5 5 5 6
-11 -9 -9 -7 -8 -9 -9 -9 -8 -8 -8 -8 -7 -7 -7 -7 -7 -7 -7 -7 -6 -6 -6 -6 -6 -5 -4 -3 -2 -1 1 3 4 4 4 4 4 4 4 4 3 4 4 4
Height
830 835 842 840 837 832 836 848 826 811 799 798 790 780 770 768 770 768 767 763 756 746 744 743 741 736 733 731 724 725 731 726 726 731 735 742 749 759 768 779 785 790 800 808
839 847 832 830 828 827 828 833 819 797 792 791 782 775 765 764 769 770 770 765 762 755 749 746 740 736 729 725 724 725 724 719 719 723 727 734 743 753 762 773 782 786 794 800
853 837 832 829 828 825 828 828 819 810 786 785 786 788 778 771 770 769 769 766 761 759 749 747 739 735 727 721 719 715 715 714 720 715 721 728 740 748 760 766 776 783 790 797
846 836 836 830 826 825 827 814 809 800 806 838 787 816 780 778 772 770 771 766 759 756 743 740 735 727 726 719 715 711 710 711 709 706 713 715 718 727 746 759 771 780 787 794
854 844 840 831 829 825 825 816 799 793 810 829 800 819 794 782 780 777 769 764 756 752 745 736 732 726 718 714 706 703 704 702 707 710 675 706 716 725 739 753 765 776 784 791
852 840 837 828 827 824 824 818 797 804 821 842 816 811 809 791 787 778 769 762 754 742 737 728 728 720 714 703 701 697 696 699 704 702 679 687 710 720 728 742 758 770 780 787
857 843 836 833 839 825 834 826 845 852 850 828 787 797 799 785 776 774 767 761 754 742 735 720 716 711 706 703 693 693 692 693 702 697 678 695 702 712 723 729 746 761 774 782
892 866 844 837 855 858 842 854 853 853 822 804 786 805 780 776 772 763 761 756 747 737 729 714 707 702 696 694 689 685 683 691 694 697 691 691 702 705 717 722 734 749 761 770
899 868 840 840 839 850 845 852 840 851 833 832 790 786 785 770 771 771 762 752 743 730 718 704 696 691 684 681 680 684 682 684 688 688 689 687 695 702 711 723 733 741 753 766
886 875 845 840 841 843 848 850 857 875 843 828 782 804 796 780 770 765 757 749 735 722 708 694 682 677 673 669 667 667 672 682 681 679 679 685 694 704 708 720 726 738 752 760
902 900 861 849 861 874 852 876 865 853 836 824 809 790 792 781 781 772 760 747 735 720 705 689 677 666 661 659 659 664 671 675 678 678 676 685 690 702 708 717 717 740 748 758
884 888 889 859 861 854 854 868 862 850 834 829 823 797 777 782 782 775 758 744 728 716 699 684 670 656 646 643 648 655 666 672 669 673 680 683 688 698 707 720 727 734 749 758
880 901 892 884 874 856 860 857 858 848 839 830 839 799 777 783 780 768 754 741 725 710 695 681 669 660 648 642 642 646 658 661 664 672 678 684 689 695 708 713 726 736 743 755
872 901 898 893 875 854 853 857 858 851 846 832 828 807 784 781 776 754 740 733 723 711 698 685 671 660 647 641 647 650 654 658 663 669 673 682 687 695 706 715 720 733 737 749
884 895 876 859 852 853 854 862 857 852 849 843 821 820 801 791 778 765 744 736 723 706 692 677 668 659 647 644 643 642 651 657 661 669 676 682 691 695 703 710 721 731 736 743
878 880 864 866 844 858 854 856 853 848 845 843 834 815 807 794 777 759 746 731 719 707 694 682 674 660 651 646 641 641 649 654 663 671 677 685 692 693 701 710 719 728 737 746
886 878 880 867 845 844 859 873 865 849 844 844 831 818 801 781 770 753 740 733 725 712 704 692 679 669 660 653 649 645 647 658 666 671 681 685 691 698 702 713 719 725 736 744
880 884 877 870 852 879 860 858 857 850 845 842 832 820 813 797 775 757 751 735 723 703 694 683 678 669 662 656 650 647 652 659 666 674 682 689 696 697 709 716 724 731 740 743
879 878 887 887 869 856 857 859 858 867 849 837 831 816 805 789 769 748 749 740 732 719 707 699 683 675 665 653 646 647 655 662 670 679 684 690 697 703 710 717 724 732 741 747
872 882 893 877 886 866 881 853 846 847 848 835 837 819 806 789 769 757 745 734 723 722 708 696 676 671 662 654 644 651 660 666 675 682 686 696 700 708 715 722 728 734 740 744
899 904 900 887 891 868 865 855 843 862 868 848 843 828 814 807 805 783 766 751 734 721 708 692 684 675 672 662 655 654 664 673 677 685 693 702 707 710 716 723 730 735 740 746
917 918 907 894 911 885 867 857 870 875 862 856 846 834 821 810 800 787 774 759 741 729 718 712 694 693 678 670 666 669 673 679 683 690 696 703 708 715 723 727 733 737 741 749
907 904 909 897 881 871 871 868 867 867 864 855 846 836 826 813 802 792 779 771 754 748 729 715 710 694 687 679 680 682 683 686 692 696 702 708 712 719 724 727 734 741 749 753
894 899 902 891 874 875 871 869 868 863 860 853 846 837 828 818 806 799 788 775 764 749 739 730 714 712 701 700 694 688 690 691 696 702 706 710 715 722 727 732 739 743 748 755
893 890 887 886 874 872 869 868 869 861 856 850 844 837 829 822 808 803 793 784 774 762 751 741 732 723 721 714 705 701 699 699 701 705 709 715 719 724 730 735 741 745 749 752
893 888 892 882 882 882 875 870 868 864 856 849 841 835 829 824 815 803 799 792 780 773 763 752 745 738 733 722 717 711 709 707 707 711 716 719 725 729 734 741 747 752 752 757
Wind_Speed
5 5 4 6 4 6 6 3 17 20 19 16 20 25 24 20 15 12 9 13 15 20 20 25 25 26 25 26 29 24 28 27 40 40 40 40 41 42 41 41 41 48 48 43
6 1 2 9 8 7 6 11 19 17 14 21 22 26 18 11 4 8 12 15 14 18 17 20 24 27 25 24 26 29 27 27 35 46 45 47 43 42 44 45 45 48 51 45
2 4 9 12 7 8 9 13 13 24 28 19 5 5 6 4 5 9 12 13 16 16 20 17 21 22 28 22 25 27 28 27 21 45 50 45 43 43 41 44 45 46 48 47
4 6 11 10 7 11 13 8 20 24 16 3 4 4 3 7 10 13 14 15 19 18 23 19 18 24 23 24 27 30 30 29 30 39 46 49 45 43 43 44 44 45 48 46
6 6 10 2 10 11 7 18 25 17 7 4 4 2 4 5 10 18 18 20 22 19 20 21 20 25 29 28 29 30 35 33 27 23 46 49 42 44 45 44 45 44 45 44
6 6 3 1 12 7 12 13 16 3 2 3 4 3 4 3 8 14 18 21 24 25 24 23 25 27 27 29 25 28 32 30 31 26 26 45 47 44 42 44 44 43 42 41
9 7 6 4 7 7 7 11 6 7 5 4 3 8 6 2 9 15 21 20 22 24 22 25 22 19 23 24 24 24 27 25 29 23 34 41 47 47 47 51 47 45 40 41
5 9 4 7 2 4 5 4 0 6 9 14 20 5 5 1 16 27 27 24 24 24 22 25 22 20 25 25 25 25 23 27 29 24 31 35 45 48 45 50 52 49 48 49
5 6 8 14 3 4 4 6 5 5 7 4 4 7 4 17 23 25 25 27 27 28 24 25 22 21 24 23 26 27 21 29 27 23 29 32 39 47 45 48 50 52 49 46
4 8 4 5 2 5 4 3 5 3 6 7 4 6 4 21 32 30 30 29 29 27 26 23 19 15 20 24 26 27 22 32 25 23 28 27 39 48 46 40 43 40 44 47
3 3 7 5 2 4 2 3 3 4 3 4 6 6 3 22 27 27 28 27 25 24 23 20 17 18 20 26 23 29 27 28 26 29 27 30 43 40 44 47 48 43 39 47
4 2 4 9 7 5 4 1 2 3 4 4 4 7 5 24 23 24 26 24 23 25 22 20 18 15 21 21 24 26 24 27 23 28 29 35 33 36 37 38 40 43 41 43
2 2 5 9 5 4 2 3 6 8 6 4 4 9 18 23 26 26 25 25 23 23 24 19 16 13 8 6 17 18 21 18 23 27 31 31 39 42 40 41 36 42 39 38
5 2 6 5 13 13 10 3 10 7 3 10 9 25 31 28 30 32 30 24 24 21 19 15 14 13 11 8 4 18 16 23 25 25 29 25 35 39 39 43 45 45 46 38
3 3 4 15 17 12 2 2 12 11 10 4 16 21 23 29 28 26 26 22 24 23 23 23 20 16 13 15 9 16 23 25 24 26 29 32 25 35 37 39 41 43 45 42
2 4 13 9 1 6 5 8 15 14 9 7 13 22 23 25 26 24 21 27 27 25 26 24 20 20 16 14 16 20 23 24 26 25 26 29 33 33 36 37 39 38 39 41
2 4 4 5 8 4 3 2 9 15 6 7 19 26 28 31 30 30 22 27 25 24 23 21 20 17 14 19 15 4 24 27 27 27 26 27 30 32 36 35 37 40 41 42
5 4 2 4 7 3 5 2 7 10 3 8 21 24 23 24 28 22 20 27 27 30 26 23 20 19 25 21 10 8 29 27 27 27 25 28 28 30 31 35 36 37 37 41
4 2 4 2 2 5 4 8 12 4 5 15 24 26 27 29 23 8 27 26 24 25 21 21 31 26 23 20 13 21 30 29 28 28 31 30 28 29 29 29 30 31 31 31
6 3 2 4 3 3 3 13 16 3 3 23 22 25 28 28 22 19 34 31 30 29 32 29 35 29 28 27 8 24 28 29 27 27 29 28 35 32 28 28 29 30 32 31
4 4 1 4 3 4 7 11 11 6 6 21 19 21 22 18 14 24 26 27 37 37 40 45 35 32 30 31 20 19 21 21 27 31 34 29 29 31 30 30 30 31 28 30
2 2 3 3 3 5 7 4 4 5 13 14 17 18 20 21 21 22 23 26 27 28 38 40 35 30 32 34 27 19 21 22 26 28 28 32 30 29 29 30 26 30 30 28
3 5 3 5 4 2 3 3 3 6 8 10 14 18 18 19 20 22 21 22 23 31 35 39 32 33 35 39 34 20 17 27 28 28 27 28 26 25 27 28 28 27 29 29
3 4 2 3 1 5 7 2 6 10 10 14 13 17 15 16 19 19 18 19 20 32 31 36 35 30 34 33 30 24 15 24 28 26 26 25 27 24 24 28 30 32 28 26
4 3 3 5 4 7 0 8 9 14 14 14 18 16 13 15 18 16 16 17 24 29 33 35 32 30 31 31 32 29 17 18 24 25 25 25 25 24 24 22 23 26 25 29
4 5 3 4 1 3 8 7 12 9 15 14 14 15 20 18 15 23 15 22 23 26 30 30 31 30 30 27 30 32 22 17 22 22 19 21 24 24 24 23 19 11 16 20
Wind_Direction
342 68 41 328 280 248 266 263 288 290 299 295 291 293 291 298 293 291 305 307 288 276 292 303 298 290 288 287 290 293 292 313 191 179 174 172 174 167 167 170 170 167 170 162
14 118 308 337 324 317 313 298 299 292 302 305 304 294 296 300 70 43 0 339 337 332 327 327 322 320 284 278 278 279 284 288 204 187 181 178 174 169 169 170 174 171 168 162
163 270 326 332 322 331 317 295 305 301 313 314 307 312 41 337 43 9 354 334 328 330 319 323 315 309 305 288 275 278 283 283 274 200 183 176 175 166 171 172 173 173 167 166
290 305 322 330 353 337 315 321 305 301 322 293 64 278 341 338 350 357 342 334 326 325 318 315 314 309 299 290 276 266 271 274 297 230 190 177 173 169 174 170 170 170 169 168
269 305 332 337 343 325 284 320 305 304 292 45 332 49 258 333 349 342 335 329 324 320 312 308 309 300 294 287 282 259 260 268 292 267 190 174 170 170 169 168 170 170 170 169
257 269 249 353 343 316 332 315 309 343 52 7 250 75 276 360 323 324 329 327 323 317 316 305 304 296 290 287 275 255 258 264 281 300 229 175 169 170 167 167 166 167 168 167
324 318 324 50 327 307 1 353 341 358 8 256 317 338 246 199 349 339 328 323 317 312 311 305 304 297 289 277 281 255 253 268 272 287 245 177 171 168 172 166 168 165 165 166
13 331 19 354 178 242 344 69 1 307 319 295 300 237 261 325 342 352 329 325 320 314 310 299 296 287 277 266 263 248 247 261 270 276 219 204 178 171 173 169 168 169 168 171
346 263 307 315 344 120 341 17 291 263 264 282 255 289 334 354 344 331 326 325 318 313 309 301 294 275 260 254 251 232 223 255 260 255 194 208 177 175 172 174 173 171 170 169
256 292 280 325 89 43 87 311 345 350 308 307 291 303 266 344 337 333 328 323 317 314 314 307 298 279 263 256 243 222 221 243 254 236 194 211 170 179 170 168 169 169 170 168
137 153 294 345 2 229 355 6 302 256 249 288 310 289 244 348 330 324 320 315 313 315 311 309 302 292 277 251 219 203 216 234 248 208 173 189 173 175 169 166 165 172 171 169
233 219 294 290 310 158 141 267 269 302 312 270 265 273 311 339 326 323 317 316 315 319 319 318 318 322 292 217 188 194 209 226 221 189 168 168 158 158 164 172 169 166 170 169
290 316 314 340 355 292 53 46 328 292 267 260 323 285 325 324 327 326 321 324 326 325 327 325 327 324 316 143 171 186 213 211 191 167 161 170 167 160 167 162 166 164 163 168
17 171 173 246 264 282 295 1 343 352 288 304 278 306 323 330 334 328 329 333 333 328 325 322 341 338 354 16 225 187 200 184 180 156 154 161 162 164 163 166 163 167 163 166
96 243 242 283 277 275 187 279 345 0 305 275 303 312 325 327 324 323 317 330 333 337 343 350 347 339 356 352 319 176 161 162 160 156 155 164 172 163 159 158 164 168 166 166
335 266 315 297 292 170 175 3 3 345 314 276 292 317 328 320 319 326 329 336 344 346 345 344 339 346 346 345 338 152 148 143 156 148 149 156 158 151 156 161 162 164 164 165
291 307 335 270 317 343 12 314 342 324 321 300 346 325 325 329 332 330 334 338 342 345 342 338 339 340 336 333 320 180 137 150 147 137 146 146 149 151 149 152 151 154 160 156
285 292 211 283 343 15 250 226 300 322 275 350 335 328 326 325 321 315 346 338 341 341 344 347 346 338 334 323 327 309 143 141 138 132 133 142 147 145 154 154 155 155 160 159
233 317 309 332 261 275 1 343 326 59 292 5 337 328 331 332 326 299 348 341 343 341 339 338 334 327 327 342 348 150 139 137 136 140 134 137 142 140 145 151 157 158 159 157
360 21 143 335 319 278 230 321 315 159 279 3 337 328 334 340 355 334 335 339 337 342 346 346 342 351 1 350 42 132 137 134 135 141 131 143 147 145 144 144 146 152 157 151
335 341 64 299 290 300 336 316 324 56 284 330 326 324 330 340 331 314 325 335 336 341 349 348 355 357 1 359 74 80 111 130 136 136 140 137 137 141 149 148 150 152 152 152
192 43 317 321 339 334 1 344 73 250 303 307 320 324 325 327 327 331 333 337 337 344 347 352 347 358 1 18 42 61 61 105 120 129 127 139 141 143 150 151 145 151 151 144
350 177 218 183 253 341 342 222 252 287 294 309 319 319 321 327 331 333 334 337 335 342 342 349 353 359 6 16 23 39 60 123 135 134 136 134 141 147 156 155 147 143 147 151
291 168 201 5 297 315 312 267 323 331 321 317 318 315 329 328 329 332 334 336 338 343 347 349 353 6 4 6 17 31 82 130 140 134 133 134 137 145 151 153 155 155 155 150
208 137 216 253 294 317 10 335 329 323 323 322 322 329 333 332 327 333 334 338 339 343 346 349 353 358 2 5 16 33 68 119 123 124 127 131 137 141 142 150 161 163 165 170
189 205 161 248 148 195 275 302 315 320 321 320 322 336 340 337 329 329 335 337 342 344 345 351 353 357 358 4 16 31 56 97 118 117 124 129 134 137 137 138 125 144 162 175